This is the latest recevied weather packets stored in our database for station/object DC4XK-10. If no packets are shown the sender has not sent any weather packets the latest 10 day(s).
| Time | Temp. | Humidity | Pressure | Rain* | Wind** | Luminosity | Snow |
|---|---|---|---|---|---|---|---|
| 1777615731 | 8.33° C | 97% | 1028.2 hPa | 0 mm | 0 m/s | - | - |
| 1777615133 | 7.78° C | 99% | 1028.2 hPa | 0 mm | 0 m/s | - | - |
| 1777614531 | 7.78° C | 99% | 1028.3 hPa | 0 mm | 0 m/s | - | - |
| 1777613931 | 8.33° C | 99% | 1028.2 hPa | 0 mm | 0 m/s | - | - |
| 1777613330 | 8.33° C | 99% | 1028.1 hPa | 0 mm | 0 m/s | - | - |
| 1777612731 | 7.22° C | 99% | 1027.8 hPa | 0 mm | 0 m/s | - | - |
| 1777612131 | 6.11° C | 99% | 1028.2 hPa | 0 mm | 0 m/s | - | - |
| 1777611531 | 6.11° C | 99% | 1028.1 hPa | 0 mm | 0 m/s | - | - |
| 1777610930 | 5.56° C | 99% | 1028 hPa | 0 mm | 0 m/s | - | - |
| 1777610333 | 4.44° C | 99% | 1027.8 hPa | 0 mm | 0 m/s | - | - |
| 1777609731 | 3.89° C | 99% | 1027.9 hPa | 0 mm | 0 m/s | - | - |
| 1777609131 | 3.89° C | 99% | 1027.9 hPa | 0 mm | 0 m/s | - | - |
| 1777608531 | 3.33° C | 99% | 1028 hPa | 0 mm | 0 m/s | - | - |
| 1777607931 | 3.33° C | 99% | 1027.8 hPa | 0 mm | 0 m/s | - | - |
| 1777607331 | 5.56° C | 99% | 1027.9 hPa | 0 mm | 0 m/s | - | - |
| 1777606732 | 5.56° C | 99% | 1027.9 hPa | 0 mm | 0 m/s | - | - |
| 1777606131 | 5° C | 99% | 1027.9 hPa | 0 mm | 0 m/s | - | - |
| 1777605530 | 5.56° C | 99% | 1027.9 hPa | 0 mm | 0 m/s | - | - |
| 1777604933 | 6.11° C | 99% | 1028 hPa | 0 mm | 0 m/s | - | - |
| 1777604331 | 5.56° C | 99% | 1027.9 hPa | 0 mm | 0 m/s | - | - |
| 1777603730 | 6.11° C | 98% | 1028 hPa | 0 mm | 0 m/s | - | - |
| 1777602530 | 6.67° C | 97% | 1028 hPa | 0 mm | 0 m/s | - | - |
| 1777601931 | 6.67° C | 97% | 1028 hPa | 0 mm | 0 m/s | - | - |
| 1777601331 | 6.11° C | 97% | 1028.1 hPa | 0 mm | 0 m/s | - | - |
| 1777600730 | 5.56° C | 96% | 1027.9 hPa | 0 mm | 0 m/s | - | - |
* Rain latest hour (hover to see other rain measurements)
** Current wind speed in m/s (hover to see current wind gust speed)